When you browse on this site, cookies collect data to enhance your experience and personalize the content and advertising you see.
Visit our Privacy Policy to learn more. By continuing to use the site, you agree to this use of cookies and data.
  • In United Kingdom
  • List of Countries
  • For 7 days
  • Water Temperature
  • Weather Map
  • Weather Widgets
  • user-avatar
    Login

    Hourly Weather Brisbane

    Today, 1 June, Monday

    Time Temperature Precipitation Wind Pressure Humidity
    00:00 +18°C° 0.1 mm 1 mps 763 mmHg 85%
    01:00 +18°C° 0.1 mm 1 mps 763 mmHg 86%
    02:00 +16°C° 0 mm 1 mps 762 mmHg 86%
    03:00 +16°C° 0 mm 1 mps 762 mmHg 87%
    04:00 +16°C° 0 mm 1 mps 762 mmHg 88%
    05:00 +16°C° 0 mm 1 mps 762 mmHg 88%
    06:00 +16°C° 0 mm 1 mps 762 mmHg 88%
    07:00 +16°C° 0 mm 1 mps 762 mmHg 88%
    08:00 +19°C° 0 mm 1 mps 762 mmHg 79%
    09:00 +21°C° 0 mm 1 mps 762 mmHg 70%
    10:00 +23°C° 0 mm 1 mps 762 mmHg 61%
    11:00 +24°C° 0 mm 2 mps 761 mmHg 55%
    12:00 +25°C° 0 mm 2 mps 760 mmHg 49%
    13:00 +26°C° 0 mm 2 mps 759 mmHg 43%
    14:00 +26°C° 0 mm 3 mps 759 mmHg 45%
    15:00 +26°C° 0 mm 3 mps 759 mmHg 47%
    16:00 +25°C° 0 mm 3 mps 759 mmHg 49%
    17:00 +24°C° 0 mm 3 mps 759 mmHg 54%
    18:00 +21°C° 0 mm 3 mps 759 mmHg 59%
    19:00 +20°C° 0 mm 3 mps 759 mmHg 64%
    20:00 +19°C° 0.1 mm 3 mps 759 mmHg 68%
    21:00 +19°C° 0.1 mm 2 mps 760 mmHg 71%
    22:00 +18°C° 0.1 mm 2 mps 760 mmHg 74%
    23:00 +18°C° 0 mm 3 mps 760 mmHg 72%

    Tomorrow, 2 June, Tuesday

    Time Temperature Precipitation Wind Pressure Humidity
    00:00 +18°C° 0 mm 3 mps 760 mmHg 70%
    01:00 +18°C° 0 mm 4 mps 759 mmHg 68%
    02:00 +17°C° 0 mm 4 mps 760 mmHg 66%
    03:00 +15°C° 0 mm 4 mps 760 mmHg 63%
    04:00 +14°C° 0 mm 4 mps 760 mmHg 60%
    05:00 +14°C° 0 mm 4 mps 761 mmHg 61%
    06:00 +13°C° 0 mm 4 mps 761 mmHg 61%
    07:00 +12°C° 0 mm 5 mps 762 mmHg 62%
    08:00 +13°C° 0 mm 5 mps 762 mmHg 52%
    09:00 +15°C° 0 mm 5 mps 762 mmHg 43%
    10:00 +16°C° 0 mm 5 mps 763 mmHg 34%
    11:00 +17°C° 0 mm 5 mps 762 mmHg 31%
    12:00 +19°C° 0 mm 5 mps 761 mmHg 28%
    13:00 +20°C° 0 mm 5 mps 761 mmHg 25%
    14:00 +20°C° 0 mm 5 mps 761 mmHg 27%
    15:00 +19°C° 0 mm 5 mps 761 mmHg 30%
    16:00 +19°C° 0 mm 5 mps 761 mmHg 33%
    17:00 +16°C° 0 mm 5 mps 762 mmHg 37%
    18:00 +14°C° 0 mm 5 mps 762 mmHg 40%
    19:00 +13°C° 0 mm 5 mps 763 mmHg 44%
    20:00 +12°C° 0 mm 4 mps 763 mmHg 47%
    21:00 +12°C° 0 mm 4 mps 763 mmHg 50%
    22:00 +11°C° 0 mm 4 mps 764 mmHg 52%
    23:00 +10°C° 0 mm 4 mps 764 mmHg 55%

    Day after tomorrow, 3 June, Wednesday

    Time Temperature Precipitation Wind Pressure Humidity
    00:00 +10°C° 0 mm 4 mps 763 mmHg 58%
    01:00 +9°C° 0 mm 3 mps 763 mmHg 61%
    02:00 +9°C° 0 mm 3 mps 763 mmHg 63%
    03:00 +9°C° 0 mm 3 mps 763 mmHg 65%
    04:00 +8°C° 0 mm 3 mps 763 mmHg 67%
    05:00 +8°C° 0 mm 3 mps 764 mmHg 68%
    06:00 +8°C° 0 mm 2 mps 764 mmHg 69%
    07:00 +8°C° 0 mm 2 mps 765 mmHg 70%
    08:00 +10°C° 0 mm 2 mps 765 mmHg 62%
    09:00 +14°C° 0 mm 2 mps 765 mmHg 53%
    10:00 +16°C° 0 mm 2 mps 765 mmHg 44%
    11:00 +19°C° 0 mm 1 mps 764 mmHg 40%
    12:00 +20°C° 0 mm 1 mps 764 mmHg 35%
    13:00 +20°C° 0 mm 0 mps 763 mmHg 31%
    14:00 +22°C° 0 mm 1 mps 763 mmHg 33%
    15:00 +21°C° 0 mm 1 mps 763 mmHg 36%
    16:00 +20°C° 0 mm 1 mps 763 mmHg 38%
    17:00 +18°C° 0 mm 2 mps 764 mmHg 45%
    18:00 +16°C° 0 mm 2 mps 765 mmHg 52%
    19:00 +15°C° 0 mm 2 mps 765 mmHg 60%
    20:00 +14°C° 0 mm 2 mps 766 mmHg 63%
    21:00 +14°C° 0 mm 2 mps 766 mmHg 65%
    22:00 +14°C° 0 mm 2 mps 767 mmHg 68%
    23:00 +13°C° 0 mm 2 mps 767 mmHg 70%

    4 June, Thursday

    Time Temperature Precipitation Wind Pressure Humidity
    00:00 +13°C° 0 mm 2 mps 766 mmHg 71%
    01:00 +12°C° 0 mm 2 mps 766 mmHg 72%
    02:00 +12°C° 0 mm 2 mps 766 mmHg 73%
    03:00 +12°C° 0 mm 2 mps 766 mmHg 74%
    04:00 +12°C° 0 mm 2 mps 766 mmHg 75%
    05:00 +12°C° 0 mm 2 mps 767 mmHg 75%
    06:00 +10°C° 0 mm 2 mps 767 mmHg 75%
    07:00 +10°C° 0 mm 2 mps 768 mmHg 76%
    08:00 +14°C° 0 mm 2 mps 768 mmHg 69%
    09:00 +16°C° 0 mm 3 mps 768 mmHg 62%
    10:00 +18°C° 0 mm 3 mps 768 mmHg 55%
    11:00 +19°C° 0 mm 4 mps 768 mmHg 52%
    12:00 +20°C° 0 mm 4 mps 767 mmHg 50%
    13:00 +22°C° 0 mm 5 mps 767 mmHg 47%
    14:00 +21°C° 0 mm 5 mps 767 mmHg 50%
    15:00 +21°C° 0 mm 5 mps 767 mmHg 53%
    16:00 +20°C° 0 mm 5 mps 767 mmHg 57%
    17:00 +19°C° 0 mm 5 mps 767 mmHg 62%
    18:00 +17°C° 0 mm 4 mps 768 mmHg 66%
    19:00 +15°C° 0 mm 4 mps 768 mmHg 71%
    20:00 +14°C° 0 mm 4 mps 769 mmHg 73%
    21:00 +14°C° 0 mm 4 mps 769 mmHg 74%
    22:00 +13°C° 0 mm 3 mps 769 mmHg 76%
    23:00 +13°C° 0 mm 3 mps 769 mmHg 77%

    5 June, Friday

    Time Temperature Precipitation Wind Pressure Humidity
    00:00 +12°C° 0 mm 3 mps 768 mmHg 79%
    01:00 +12°C° 0 mm 3 mps 768 mmHg 80%
    02:00 +12°C° 0 mm 3 mps 768 mmHg 81%
    03:00 +13°C° 0 mm 2 mps 768 mmHg 82%
    04:00 +12°C° 0 mm 2 mps 768 mmHg 82%
    05:00 +13°C° 0.1 mm 2 mps 768 mmHg 82%
    06:00 +13°C° 0.1 mm 2 mps 768 mmHg 82%
    07:00 +13°C° 0.1 mm 2 mps 769 mmHg 81%
    08:00 +15°C° 0 mm 2 mps 769 mmHg 74%
    09:00 +16°C° 0 mm 2 mps 769 mmHg 66%
    10:00 +18°C° 0 mm 3 mps 768 mmHg 59%
    11:00 +20°C° 0 mm 3 mps 768 mmHg 55%
    12:00 +21°C° 0 mm 3 mps 767 mmHg 51%
    13:00 +22°C° 0 mm 3 mps 767 mmHg 47%
    14:00 +21°C° 0 mm 3 mps 766 mmHg 51%
    15:00 +21°C° 0 mm 4 mps 766 mmHg 55%
    16:00 +20°C° 0 mm 4 mps 766 mmHg 59%
    17:00 +19°C° 0 mm 3 mps 767 mmHg 64%
    18:00 +18°C° 0 mm 3 mps 767 mmHg 69%
    19:00 +16°C° 0 mm 3 mps 767 mmHg 74%
    20:00 +16°C° 0.1 mm 2 mps 768 mmHg 77%
    21:00 +16°C° 0.1 mm 2 mps 768 mmHg 79%
    22:00 +15°C° 0.1 mm 2 mps 768 mmHg 82%
    23:00 +15°C° 0 mm 2 mps 767 mmHg 83%

    6 June, Saturday

    Time Temperature Precipitation Wind Pressure Humidity
    00:00 +14°C° 0 mm 2 mps 767 mmHg 84%
    01:00 +14°C° 0 mm 2 mps 767 mmHg 85%
    02:00 +14°C° 0 mm 2 mps 767 mmHg 85%
    03:00 +14°C° 0 mm 2 mps 766 mmHg 86%
    04:00 +13°C° 0 mm 2 mps 766 mmHg 86%
    05:00 +13°C° 0 mm 2 mps 766 mmHg 86%
    06:00 +13°C° 0 mm 2 mps 767 mmHg 86%
    07:00 +13°C° 0 mm 2 mps 767 mmHg 87%
    08:00 +15°C° 0 mm 2 mps 767 mmHg 79%
    09:00 +17°C° 0 mm 2 mps 767 mmHg 72%
    10:00 +19°C° 0 mm 2 mps 767 mmHg 64%
    11:00 +20°C° 0.1 mm 2 mps 766 mmHg 62%
    12:00 +21°C° 0.1 mm 2 mps 765 mmHg 60%
    13:00 +21°C° 0.1 mm 2 mps 764 mmHg 58%
    14:00 +21°C° 0 mm 2 mps 764 mmHg 60%
    15:00 +20°C° 0 mm 2 mps 764 mmHg 63%
    16:00 +20°C° 0 mm 2 mps 764 mmHg 65%
    17:00 +19°C° 0 mm 2 mps 764 mmHg 70%
    18:00 +19°C° 0 mm 1 mps 764 mmHg 75%
    19:00 +16°C° 0 mm 1 mps 765 mmHg 81%
    20:00 +16°C° 0 mm 1 mps 765 mmHg 82%
    21:00 +16°C° 0 mm 1 mps 765 mmHg 83%
    22:00 +15°C° 0 mm 1 mps 764 mmHg 84%
    23:00 +15°C° 0 mm 1 mps 764 mmHg 85%
    Show more